| time (UTC) | temp F | wind direction | speed MPH | gust MPH | rain 1hr in | rain 24hr in | rain mn in | humidity % | barometer mb |
| 20260509212618 | 74 | 266 | 1.0 | 4.0 | 0.00 | 0.00 | 0.00 | 80 | 1014.0 |
| 20260509212547 | 74 | 249 | 1.0 | 4.0 | 0.00 | 0.00 | 0.00 | 80 | 1014.0 |
| 20260509212108 | 74 | 276 | 2.0 | 7.0 | 0.00 | 0.00 | 0.00 | 80 | 1013.9 |
| 20260509212047 | 74 | 186 | 3.0 | 7.0 | 0.00 | 0.00 | 0.00 | 80 | 1013.9 |
| 20260509211557 | 74 | 59 | 2.0 | 6.0 | 0.00 | 0.00 | 0.00 | 80 | 1014.0 |
| 20260509211547 | 74 | 68 | 1.0 | 4.0 | 0.00 | 0.00 | 0.00 | 80 | 1014.0 |
| 20260509211049 | 74 | 175 | 1.0 | 5.0 | 0.00 | 0.00 | 0.00 | 80 | 1013.8 |
| 20260509210538 | 74 | 287 | 1.0 | 8.0 | 0.00 | 0.00 | 0.00 | 80 | 1013.7 |
| 20260509210046 | 74 | 255 | 1.0 | 5.0 | 0.00 | 0.00 | 0.00 | 80 | 1013.7 |
| 20260509210028 | 74 | 268 | 3.0 | 5.0 | 0.00 | 0.00 | 0.00 | 80 | 1013.7 |
| 20260509205546 | 74 | 220 | 3.0 | 4.0 | 0.00 | 0.00 | 0.00 | 80 | 1013.8 |
| 20260509205047 | 74 | 276 | 0.0 | 4.0 | 0.00 | 0.00 | 0.00 | 80 | 1013.8 |
| 20260509205008 | 74 | 305 | 0.0 | 4.0 | 0.00 | 0.00 | 0.00 | 80 | 1013.8 |
| 20260509204546 | 74 | 228 | 2.0 | 7.0 | 0.00 | 0.00 | 0.00 | 80 | 1013.7 |
| 20260509204457 | 74 | 238 | 4.0 | 7.0 | 0.00 | 0.00 | 0.00 | 80 | 1013.8 |
| 20260509204046 | 74 | 353 | 4.0 | 7.0 | 0.00 | 0.00 | 0.00 | 80 | 1013.7 |
| 20260509203948 | 74 | 341 | 2.0 | 7.0 | 0.00 | 0.00 | 0.00 | 80 | 1013.7 |
| 20260509203547 | 74 | 300 | 1.0 | 5.0 | 0.00 | 0.00 | 0.00 | 80 | 1013.7 |
| 20260509203438 | 74 | 42 | 0.0 | 5.0 | 0.00 | 0.00 | 0.00 | 80 | 1013.7 |
| 20260509203046 | 74 | 360 | 3.0 | 7.0 | 0.00 | 0.00 | 0.00 | 80 | 1013.6 |
| 20260509202927 | 74 | 59 | 2.0 | 7.0 | 0.00 | 0.00 | 0.00 | 80 | 1013.7 |
| 20260509202546 | 74 | 328 | 1.0 | 3.0 | 0.00 | 0.00 | 0.00 | 80 | 1013.6 |
| 20260509202418 | 74 | 245 | 1.0 | 11.0 | 0.00 | 0.00 | 0.00 | 80 | 1013.7 |
| 20260509202047 | 74 | 71 | 5.0 | 11.0 | 0.00 | 0.00 | 0.00 | 80 | 1013.7 |
| 20260509201907 | 74 | 20 | 2.0 | 6.0 | 0.00 | 0.00 | 0.00 | 80 | 1013.8 |
| 20260509201545 | 74 | 228 | 0.0 | 4.0 | 0.00 | 0.00 | 0.00 | 81 | 1013.7 |
| 20260509201357 | 74 | 317 | 0.0 | 4.0 | 0.00 | 0.00 | 0.00 | 81 | 1013.7 |
| 20260509201046 | 74 | 305 | 1.0 | 2.0 | 0.00 | 0.00 | 0.00 | 80 | 1013.7 |
| 20260509200848 | 74 | 272 | 0.0 | 5.0 | 0.00 | 0.00 | 0.00 | 80 | 1013.7 |
| 20260509200546 | 74 | 303 | 1.0 | 5.0 | 0.00 | 0.00 | 0.00 | 80 | 1013.7 |
| 20260509200338 | 74 | 302 | 2.0 | 6.0 | 0.00 | 0.00 | 0.00 | 80 | 1013.7 |
| 20260509200046 | 74 | 66 | 4.0 | 7.0 | 0.00 | 0.00 | 0.00 | 80 | 1013.7 |
| 20260509195827 | 74 | 285 | 1.0 | 7.0 | 0.00 | 0.00 | 0.00 | 80 | 1013.8 |
| 20260509195546 | 74 | 27 | 2.0 | 7.0 | 0.00 | 0.00 | 0.00 | 80 | 1013.8 |
| 20260509195318 | 74 | 329 | 3.0 | 7.0 | 0.00 | 0.00 | 0.00 | 80 | 1013.7 |
| 20260509195046 | 74 | 308 | 2.0 | 8.0 | 0.00 | 0.00 | 0.00 | 80 | 1013.7 |
| 20260509194807 | 74 | 46 | 3.0 | 10.0 | 0.00 | 0.00 | 0.00 | 80 | 1013.7 |
| 20260509194546 | 74 | 17 | 3.0 | 10.0 | 0.00 | 0.00 | 0.00 | 80 | 1013.7 |
| 20260509194257 | 74 | 261 | 1.0 | 11.0 | 0.00 | 0.00 | 0.00 | 80 | 1013.7 |
| 20260509194046 | 74 | 286 | 2.0 | 12.0 | 0.00 | 0.00 | 0.00 | 80 | 1013.7 |
| 20260509193747 | 74 | 241 | 7.0 | 12.0 | 0.00 | 0.00 | 0.00 | 80 | 1013.7 |
| 20260509193546 | 74 | 249 | 8.0 | 12.0 | 0.00 | 0.00 | 0.00 | 80 | 1013.7 |
| 20260509193237 | 74 | 307 | 1.0 | 7.0 | 0.00 | 0.00 | 0.00 | 80 | 1013.7 |
| 20260509193046 | 74 | 2 | 1.0 | 7.0 | 0.00 | 0.00 | 0.00 | 80 | 1013.8 |
| 20260509192546 | 74 | 259 | 1.0 | 2.0 | 0.00 | 0.00 | 0.00 | 80 | 1013.8 |
| 20260509192217 | 74 | 20 | 0.0 | 5.0 | 0.00 | 0.00 | 0.00 | 80 | 1013.9 |
| 20260509192046 | 74 | 13 | 1.0 | 9.0 | 0.00 | 0.00 | 0.00 | 80 | 1013.9 |
| 20260509191707 | 74 | 221 | 6.0 | 9.0 | 0.00 | 0.00 | 0.00 | 80 | 1013.9 |
| 20260509191546 | 74 | 275 | 6.0 | 8.0 | 0.00 | 0.00 | 0.00 | 80 | 1013.9 |
| 20260509191157 | 74 | 243 | 2.0 | 4.0 | 0.00 | 0.00 | 0.00 | 80 | 1014.0 |
| 20260509191046 | 74 | 264 | 1.0 | 5.0 | 0.00 | 0.00 | 0.00 | 80 | 1014.0 |
| 20260509190647 | 74 | 325 | 0.0 | 10.0 | 0.00 | 0.00 | 0.00 | 80 | 1013.9 |
| 20260509190545 | 74 | 192 | 1.0 | 10.0 | 0.00 | 0.00 | 0.00 | 80 | 1013.9 |
| 20260509190137 | 74 | 18 | 2.0 | 7.0 | 0.00 | 0.00 | 0.00 | 80 | 1013.8 |
| 20260509190046 | 74 | 3 | 3.0 | 7.0 | 0.00 | 0.00 | 0.00 | 80 | 1013.9 |
| 20260509185627 | 74 | 332 | 1.0 | 5.0 | 0.00 | 0.00 | 0.00 | 80 | 1013.8 |
| 20260509185545 | 74 | 300 | 3.0 | 5.0 | 0.00 | 0.00 | 0.00 | 80 | 1013.8 |
| 20260509185117 | 74 | 360 | 2.0 | 7.0 | 0.00 | 0.00 | 0.00 | 80 | 1013.9 |
| 20260509185046 | 74 | 16 | 2.0 | 8.0 | 0.00 | 0.00 | 0.00 | 80 | 1013.9 |
| 20260509184545 | 74 | 42 | 2.0 | 11.0 | 0.00 | 0.00 | 0.00 | 80 | 1014.0 |
| 20260509184057 | 74 | 312 | 1.0 | 9.0 | 0.00 | 0.00 | 0.00 | 80 | 1014.0 |
| 20260509184046 | 74 | 52 | 1.0 | 9.0 | 0.00 | 0.00 | 0.00 | 80 | 1014.0 |
| 20260509183548 | 74 | 5 | 5.0 | 15.0 | 0.00 | 0.00 | 0.00 | 80 | 1014.1 |
| 20260509183546 | 74 | 9 | 5.0 | 15.0 | 0.00 | 0.00 | 0.00 | 80 | 1014.1 |
| 20260509183045 | 74 | 360 | 3.0 | 9.0 | 0.00 | 0.00 | 0.00 | 80 | 1014.2 |
| 20260509182546 | 74 | 35 | 3.0 | 12.0 | 0.00 | 0.00 | 0.00 | 80 | 1014.2 |
| 20260509182527 | 74 | 55 | 6.0 | 12.0 | 0.00 | 0.00 | 0.00 | 80 | 1014.1 |
| 20260509182045 | 74 | 259 | 3.0 | 18.0 | 0.00 | 0.00 | 0.00 | 80 | 1014.1 |
| 20260509182016 | 74 | 272 | 2.0 | 18.0 | 0.00 | 0.00 | 0.00 | 80 | 1014.2 |
| 20260509181545 | 74 | 44 | 2.0 | 14.0 | 0.00 | 0.00 | 0.00 | 80 | 1014.2 |
| 20260509181046 | 74 | 343 | 0.0 | 12.0 | 0.00 | 0.00 | 0.00 | 80 | 1014.2 |
| 20260509180956 | 74 | 9 | 2.0 | 12.0 | 0.00 | 0.00 | 0.00 | 80 | 1014.2 |
| 20260509180545 | 74 | 261 | 4.0 | 10.0 | 0.00 | 0.00 | 0.00 | 80 | 1014.2 |
| 20260509180447 | 74 | 207 | 3.0 | 10.0 | 0.00 | 0.00 | 0.00 | 80 | 1014.1 |
| 20260509180045 | 74 | 261 | 1.0 | 5.0 | 0.00 | 0.00 | 0.00 | 80 | 1014.2 |
| 20260509175545 | 74 | 260 | 0.0 | 4.0 | 0.00 | 0.00 | 0.00 | 80 | 1014.3 |
| 20260509175426 | 74 | 19 | 0.0 | 4.0 | 0.00 | 0.00 | 0.00 | 80 | 1014.4 |
| 20260509175045 | 74 | 122 | 1.0 | 7.0 | 0.00 | 0.00 | 0.00 | 80 | 1014.4 |
| 20260509174917 | 74 | 29 | 1.0 | 7.0 | 0.00 | 0.00 | 0.00 | 80 | 1014.4 |
| 20260509174545 | 74 | 324 | 0.0 | 9.0 | 0.00 | 0.00 | 0.00 | 80 | 1014.4 |
| 20260509174406 | 74 | 20 | 3.0 | 9.0 | 0.00 | 0.00 | 0.00 | 80 | 1014.4 |
| 20260509174045 | 74 | 75 | 2.0 | 9.0 | 0.00 | 0.00 | 0.00 | 80 | 1014.5 |
| 20260509173856 | 74 | 340 | 5.0 | 9.0 | 0.00 | 0.00 | 0.00 | 80 | 1014.5 |
| 20260509173545 | 74 | 291 | 5.0 | 7.0 | 0.00 | 0.00 | 0.00 | 80 | 1014.4 |
| 20260509173347 | 74 | 352 | 2.0 | 6.0 | 0.00 | 0.00 | 0.00 | 80 | 1014.4 |
| 20260509173045 | 74 | 278 | 1.0 | 10.0 | 0.00 | 0.00 | 0.00 | 80 | 1014.4 |
| 20260509172836 | 74 | 195 | 2.0 | 10.0 | 0.00 | 0.00 | 0.00 | 80 | 1014.4 |
| 20260509172545 | 74 | 303 | 2.0 | 8.0 | 0.00 | 0.00 | 0.00 | 80 | 1014.4 |
| 20260509172327 | 74 | 267 | 2.0 | 8.0 | 0.00 | 0.00 | 0.00 | 80 | 1014.4 |
| 20260509172045 | 74 | 235 | 4.0 | 15.0 | 0.00 | 0.00 | 0.00 | 80 | 1014.4 |
| 20260509171816 | 74 | 235 | 3.0 | 15.0 | 0.00 | 0.00 | 0.00 | 79 | 1014.4 |
| 20260509171545 | 74 | 20 | 4.0 | 10.0 | 0.00 | 0.00 | 0.00 | 79 | 1014.4 |
| 20260509171307 | 74 | 249 | 5.0 | 8.0 | 0.00 | 0.00 | 0.00 | 79 | 1014.5 |
| 20260509171044 | 74 | 255 | 2.0 | 11.0 | 0.00 | 0.00 | 0.00 | 79 | 1014.5 |
| 20260509170756 | 74 | 321 | 1.0 | 14.0 | 0.00 | 0.00 | 0.00 | 79 | 1014.6 |
| 20260509170247 | 74 | 302 | 1.0 | 10.0 | 0.00 | 0.00 | 0.00 | 79 | 1014.7 |
| 20260509170044 | 74 | 354 | 5.0 | 10.0 | 0.00 | 0.00 | 0.00 | 79 | 1014.7 |
| 20260509165736 | 74 | 302 | 1.0 | 17.0 | 0.00 | 0.00 | 0.00 | 79 | 1014.8 |
| 20260509165545 | 74 | 54 | 4.0 | 17.0 | 0.00 | 0.00 | 0.00 | 79 | 1014.7 |
| 20260509165226 | 74 | 76 | 5.0 | 14.0 | 0.00 | 0.00 | 0.00 | 79 | 1014.8 |
| 20260509165044 | 74 | 302 | 5.0 | 9.0 | 0.00 | 0.00 | 0.00 | 79 | 1014.8 |
| 20260509164716 | 74 | 320 | 3.0 | 14.0 | 0.00 | 0.00 | 0.00 | 79 | 1014.9 |
| 20260509164545 | 74 | 22 | 7.0 | 14.0 | 0.00 | 0.00 | 0.00 | 79 | 1014.9 |
| 20260509164044 | 74 | 65 | 2.0 | 13.0 | 0.00 | 0.00 | 0.00 | 79 | 1015.0 |
| 20260509163656 | 74 | 34 | 3.0 | 21.0 | 0.00 | 0.00 | 0.00 | 79 | 1015.0 |
| 20260509163544 | 74 | 294 | 2.0 | 21.0 | 0.00 | 0.00 | 0.00 | 79 | 1015.1 |
| 20260509163146 | 74 | 360 | 4.0 | 23.0 | 0.00 | 0.00 | 0.00 | 79 | 1015.1 |
| 20260509163046 | 74 | 49 | 3.0 | 23.0 | 0.00 | 0.00 | 0.00 | 79 | 1015.0 |
| 20260509162636 | 74 | 35 | 6.0 | 19.0 | 0.00 | 0.00 | 0.00 | 79 | 1015.1 |
| 20260509162544 | 74 | 14 | 4.0 | 19.0 | 0.00 | 0.00 | 0.00 | 79 | 1015.1 |
| 20260509162126 | 74 | 72 | 2.0 | 13.0 | 0.00 | 0.00 | 0.00 | 79 | 1015.2 |
| 20260509162045 | 74 | 339 | 1.0 | 13.0 | 0.00 | 0.00 | 0.00 | 79 | 1015.3 |
| 20260509161615 | 74 | 35 | 5.0 | 10.0 | 0.00 | 0.12 | 0.00 | 79 | 1015.4 |
| 20260509161544 | 74 | 41 | 4.0 | 11.0 | 0.00 | 0.12 | 0.00 | 79 | 1015.4 |
| 20260509161106 | 74 | 16 | 3.0 | 11.0 | 0.00 | 0.16 | 0.00 | 79 | 1015.4 |
| 20260509161044 | 74 | 348 | 1.0 | 11.0 | 0.00 | 0.17 | 0.00 | 79 | 1015.4 |
| 20260509160556 | 74 | 60 | 4.0 | 18.0 | 0.00 | 0.21 | 0.00 | 79 | 1015.5 |
| 20260509160544 | 74 | 34 | 5.0 | 18.0 | 0.00 | 0.21 | 0.00 | 79 | 1015.6 |
| 20260509160046 | 74 | 24 | 3.0 | 13.0 | 0.00 | 0.24 | 0.00 | 79 | 1015.6 |
| 20260509160044 | 74 | 43 | 3.0 | 13.0 | 0.00 | 0.24 | 0.00 | 79 | 1015.6 |
| 20260509155544 | 74 | 339 | 7.0 | 16.0 | 0.00 | 0.35 | 0.00 | 79 | 1015.8 |
| 20260509155536 | 74 | 34 | 8.0 | 16.0 | 0.00 | 0.35 | 0.00 | 79 | 1015.8 |
| 20260509155044 | 74 | 35 | 2.0 | 9.0 | 0.00 | 0.46 | 0.00 | 79 | 1015.9 |
| 20260509155025 | 74 | 37 | 1.0 | 9.0 | 0.00 | 0.46 | 0.00 | 79 | 1015.9 |
| 20260509154544 | 74 | 360 | 4.0 | 10.0 | 0.00 | 0.54 | 0.00 | 79 | 1015.9 |
| 20260509154516 | 74 | 74 | 3.0 | 10.0 | 0.00 | 0.54 | 0.00 | 79 | 1015.9 |
| 20260509154044 | 74 | 3 | 4.0 | 10.0 | 0.00 | 0.59 | 0.00 | 79 | 1015.8 |
| 20260509154005 | 74 | 44 | 2.0 | 10.0 | 0.00 | 0.59 | 0.00 | 79 | 1015.9 |
| 20260509153544 | 74 | 214 | 5.0 | 8.0 | 0.00 | 0.67 | 0.00 | 80 | 1015.8 |
| 20260509153456 | 74 | 276 | 5.0 | 8.0 | 0.00 | 0.68 | 0.00 | 80 | 1015.8 |
| 20260509153043 | 74 | 16 | 3.0 | 12.0 | 0.00 | 0.73 | 0.00 | 80 | 1015.8 |
| 20260509152945 | 74 | 315 | 8.0 | 12.0 | 0.00 | 0.76 | 0.00 | 80 | 1015.9 |
| 20260509152544 | 74 | 27 | 4.0 | 10.0 | 0.00 | 0.87 | 0.00 | 80 | 1015.8 |
| 20260509152436 | 74 | 25 | 5.0 | 12.0 | 0.00 | 0.88 | 0.00 | 80 | 1015.8 |
| 20260509152044 | 74 | 88 | 7.0 | 13.0 | 0.00 | 0.93 | 0.00 | 80 | 1015.9 |
| 20260509151415 | 74 | 148 | 4.0 | 18.0 | 0.00 | 0.96 | 0.00 | 80 | 1016.0 |
| 20260509151044 | 74 | 212 | 4.0 | 15.0 | 0.00 | 1.02 | 0.00 | 80 | 1015.9 |
| 20260509150905 | 74 | 301 | 2.0 | 15.0 | 0.00 | 1.02 | 0.00 | 80 | 1015.9 |
| 20260509150544 | 74 | 96 | 2.0 | 13.0 | 0.00 | 1.09 | 0.00 | 80 | 1016.0 |
| 20260509150356 | 74 | 59 | 3.0 | 13.0 | 0.00 | 1.12 | 0.00 | 80 | 1016.0 |
| 20260509150044 | 74 | 270 | 4.0 | 8.0 | 0.00 | 1.14 | 0.00 | 80 | 1015.9 |
| 20260509145846 | 74 | 29 | 1.0 | 11.0 | 0.00 | 1.22 | 0.00 | 80 | 1016.0 |
| 20260509145543 | 74 | 4 | 3.0 | 11.0 | 0.00 | 1.25 | 0.00 | 80 | 1015.9 |
| 20260509145044 | 74 | 244 | 2.0 | 7.0 | 0.00 | 1.31 | 0.00 | 80 | 1016.0 |
| 20260509144825 | 74 | 313 | 3.0 | 18.0 | 0.00 | 1.33 | 0.00 | 80 | 1016.0 |
| 20260509144543 | 74 | 26 | 5.0 | 18.0 | 0.00 | 1.35 | 0.00 | 80 | 1016.0 |
| 20260509144315 | 74 | 43 | 7.0 | 17.0 | 0.00 | 1.37 | 0.00 | 80 | 1016.0 |
| 20260509143543 | 74 | 359 | 5.0 | 15.0 | 0.00 | 1.47 | 0.00 | 80 | 1016.0 |
| 20260509143255 | 74 | 53 | 7.0 | 15.0 | 0.00 | 1.60 | 0.00 | 80 | 1016.0 |
| 20260509143045 | 74 | 298 | 4.0 | 8.0 | 0.00 | 1.65 | 0.00 | 80 | 1016.0 |
| 20260509142745 | 74 | 351 | 1.0 | 6.0 | 0.00 | 1.68 | 0.00 | 80 | 1016.0 |
| 20260509142543 | 74 | 243 | 1.0 | 6.0 | 0.00 | 1.72 | 0.00 | 80 | 1016.0 |
| 20260509142235 | 74 | 311 | 2.0 | 12.0 | 0.00 | 1.78 | 0.00 | 80 | 1016.0 |
| 20260509142043 | 74 | 155 | 6.0 | 12.0 | 0.00 | 1.83 | 0.00 | 80 | 1016.1 |
| 20260509141725 | 74 | 200 | 0.0 | 8.0 | 0.00 | 1.85 | 0.00 | 80 | 1016.1 |
| 20260509141544 | 74 | 332 | 0.0 | 10.0 | 0.00 | 1.91 | 0.00 | 80 | 1016.2 |
| 20260509141215 | 74 | 322 | 3.0 | 10.0 | 0.00 | 1.96 | 0.00 | 80 | 1016.2 |
| 20260509141043 | 74 | 19 | 3.0 | 8.0 | 0.00 | 1.97 | 0.00 | 80 | 1016.2 |
| 20260509140705 | 74 | 309 | 5.0 | 7.0 | 0.00 | 2.03 | 0.00 | 80 | 1016.1 |
| 20260509140544 | 74 | 271 | 3.0 | 7.0 | 0.00 | 2.04 | 0.00 | 80 | 1016.1 |
| 20260509140155 | 74 | 67 | 1.0 | 5.0 | 0.00 | 2.09 | 0.00 | 80 | 1016.1 |
| 20260509140043 | 74 | 246 | 1.0 | 4.0 | 0.00 | 2.13 | 0.00 | 80 | 1016.1 |
| 20260509135645 | 74 | 272 | 1.0 | 13.0 | 0.00 | 2.17 | 0.00 | 80 | 1016.1 |
| 20260509135543 | 74 | 210 | 0.0 | 13.0 | 0.00 | 2.18 | 0.00 | 80 | 1016.0 |
| 20260509135134 | 74 | 56 | 7.0 | 11.0 | 0.00 | 2.25 | 0.00 | 80 | 1016.1 |
| 20260509135043 | 74 | 107 | 5.0 | 11.0 | 0.00 | 2.25 | 0.00 | 80 | 1016.1 |
| 20260509134625 | 74 | 250 | 2.0 | 6.0 | 0.00 | 2.27 | 0.00 | 80 | 1016.1 |
| 20260509134543 | 74 | 322 | 0.0 | 3.0 | 0.00 | 2.29 | 0.00 | 80 | 1016.1 |
| 20260509134114 | 74 | 295 | 2.0 | 10.0 | 0.00 | 2.36 | 0.00 | 79 | 1016.1 |
| 20260509134043 | 74 | 260 | 3.0 | 10.0 | 0.00 | 2.37 | 0.00 | 80 | 1016.1 |
| 20260509133605 | 74 | 14 | 4.0 | 10.0 | 0.00 | 2.48 | 0.00 | 80 | 1016.1 |
| 20260509133544 | 74 | 31 | 4.0 | 10.0 | 0.00 | 2.48 | 0.00 | 80 | 1016.1 |
| 20260509133054 | 74 | 7 | 1.0 | 8.0 | 0.00 | 2.63 | 0.00 | 80 | 1016.0 |
| 20260509133043 | 74 | 34 | 0.0 | 8.0 | 0.00 | 2.63 | 0.00 | 80 | 1016.0 |
| 20260509132545 | 74 | 5 | 0.0 | 6.0 | 0.00 | 2.69 | 0.00 | 80 | 1016.0 |
| 20260509132543 | 74 | 10 | 0.0 | 6.0 | 0.00 | 2.69 | 0.00 | 80 | 1016.0 |
| 20260509132043 | 74 | 262 | 2.0 | 3.0 | 0.00 | 2.78 | 0.00 | 80 | 1016.0 |
| 20260509132034 | 74 | 305 | 1.0 | 3.0 | 0.00 | 2.78 | 0.00 | 80 | 1015.9 |
| 20260509131543 | 74 | 286 | 0.0 | 7.0 | 0.00 | 2.81 | 0.00 | 80 | 1015.9 |
| 20260509131524 | 74 | 308 | 0.0 | 7.0 | 0.00 | 2.81 | 0.00 | 80 | 1015.9 |
| 20260509131043 | 74 | 322 | 3.0 | 10.0 | 0.00 | 2.90 | 0.00 | 80 | 1015.8 |
| 20260509131014 | 74 | 334 | 5.0 | 10.0 | 0.00 | 2.90 | 0.00 | 80 | 1015.8 |
| 20260509130543 | 74 | 294 | 1.0 | 11.0 | 0.00 | 2.99 | 0.00 | 80 | 1015.7 |
| 20260509130504 | 74 | 298 | 2.0 | 11.0 | 0.00 | 3.04 | 0.00 | 80 | 1015.7 |
| 20260509130042 | 74 | 356 | 2.0 | 9.0 | 0.00 | 3.10 | 0.00 | 80 | 1015.6 |
| 20260509125954 | 74 | 26 | 2.0 | 12.0 | 0.00 | 3.11 | 0.00 | 80 | 1015.7 |
| 20260509125543 | 74 | 267 | 4.0 | 12.0 | 0.00 | 3.17 | 0.00 | 80 | 1015.5 |
| 20260509125444 | 74 | 358 | 2.0 | 11.0 | 0.00 | 3.22 | 0.00 | 80 | 1015.5 |
| 20260509125042 | 74 | 52 | 5.0 | 18.0 | 0.00 | 3.27 | 0.00 | 79 | 1015.5 |
| 20260509124934 | 74 | 100 | 6.0 | 18.0 | 0.00 | 3.29 | 0.00 | 79 | 1015.5 |
| 20260509124543 | 74 | 352 | 2.0 | 8.0 | 0.00 | 3.34 | 0.00 | 80 | 1015.3 |
| 20260509124424 | 74 | 20 | 4.0 | 14.0 | 0.00 | 3.35 | 0.00 | 80 | 1015.3 |
| 20260509124043 | 74 | 50 | 5.0 | 14.0 | 0.00 | 3.44 | 0.00 | 80 | 1015.3 |
| 20260509123914 | 74 | 2 | 5.0 | 13.0 | 0.00 | 3.48 | 0.00 | 80 | 1015.3 |
| 20260509123543 | 74 | 48 | 2.0 | 14.0 | 0.00 | 3.53 | 0.00 | 80 | 1015.3 |
| 20260509123404 | 74 | 235 | 2.0 | 14.0 | 0.00 | 3.56 | 0.00 | 80 | 1015.2 |
| 20260509123043 | 74 | 284 | 2.0 | 15.0 | 0.00 | 3.63 | 0.00 | 80 | 1015.2 |
| 20260509122854 | 74 | 318 | 7.0 | 15.0 | 0.00 | 3.67 | 0.00 | 80 | 1015.3 |
| 20260509122542 | 74 | 255 | 6.0 | 15.0 | 0.00 | 3.68 | 0.00 | 80 | 1015.1 |
| 20260509122344 | 74 | 343 | 3.0 | 10.0 | 0.00 | 3.69 | 0.00 | 80 | 1015.2 |
| 20260509122043 | 74 | 327 | 2.0 | 15.0 | 0.00 | 3.70 | 0.00 | 80 | 1015.1 |
| 20260509121834 | 74 | 225 | 3.0 | 15.0 | 0.00 | 3.74 | 0.00 | 80 | 1015.1 |
| 20260509121542 | 74 | 271 | 4.0 | 26.0 | 0.00 | 3.79 | 0.00 | 80 | 1015.1 |
| 20260509121324 | 74 | 53 | 11.0 | 26.0 | 0.00 | 3.82 | 0.00 | 80 | 1015.0 |
| 20260509121042 | 74 | 40 | 3.0 | 7.0 | 0.00 | 3.88 | 0.00 | 80 | 1015.0 |
| 20260509120814 | 74 | 269 | 2.0 | 11.0 | 0.00 | 3.93 | 0.00 | 80 | 1014.9 |
| 20260509120543 | 74 | 256 | 5.0 | 17.0 | 0.00 | 3.95 | 0.00 | 80 | 1014.9 |
| 20260509120303 | 74 | 40 | 7.0 | 17.0 | 0.00 | 4.00 | 0.00 | 80 | 1014.9 |
| 20260509120042 | 74 | 358 | 4.0 | 11.0 | 0.00 | 4.05 | 0.00 | 80 | 1014.8 |
| 20260509115754 | 74 | 314 | 3.0 | 13.0 | 0.00 | 4.08 | 0.00 | 80 | 1014.8 |
| 20260509115543 | 74 | 325 | 6.0 | 13.0 | 0.00 | 4.09 | 0.00 | 80 | 1014.8 |
| 20260509115243 | 74 | 298 | 2.0 | 9.0 | 0.00 | 4.16 | 0.00 | 80 | 1014.8 |
| 20260509115042 | 74 | 331 | 2.0 | 13.0 | 0.00 | 4.20 | 0.00 | 80 | 1014.8 |
| 20260509114734 | 74 | 343 | 6.0 | 14.0 | 0.00 | 4.21 | 0.00 | 80 | 1014.8 |
| 20260509114542 | 74 | 264 | 3.0 | 14.0 | 0.00 | 4.26 | 0.00 | 80 | 1014.8 |
| 20260509114224 | 74 | 22 | 7.0 | 12.0 | 0.00 | 4.31 | 0.00 | 80 | 1014.7 |
| 20260509114042 | 74 | 5 | 3.0 | 11.0 | 0.00 | 4.32 | 0.00 | 80 | 1014.7 |
| 20260509113713 | 74 | 67 | 5.0 | 11.0 | 0.00 | 4.37 | 0.00 | 80 | 1014.7 |
| 20260509113542 | 74 | 338 | 2.0 | 11.0 | 0.00 | 4.38 | 0.00 | 80 | 1014.6 |
| 20260509113204 | 74 | 291 | 3.0 | 14.0 | 0.00 | 4.44 | 0.00 | 80 | 1014.5 |
| 20260509113042 | 74 | 41 | 8.0 | 14.0 | 0.00 | 4.45 | 0.00 | 80 | 1014.5 |
| 20260509112653 | 74 | 13 | 3.0 | 14.0 | 0.00 | 4.48 | 0.00 | 80 | 1014.6 |
| 20260509112542 | 74 | 295 | 6.0 | 14.0 | 0.00 | 4.51 | 0.00 | 80 | 1014.6 |
| 20260509112144 | 74 | 279 | 2.0 | 16.0 | 0.00 | 4.54 | 0.00 | 80 | 1014.6 |
| 20260509112042 | 74 | 67 | 2.0 | 16.0 | 0.00 | 4.54 | 0.00 | 80 | 1014.6 |
| 20260509111633 | 74 | 333 | 5.0 | 20.0 | 0.00 | 4.62 | 0.00 | 80 | 1014.6 |
| 20260509111542 | 74 | 351 | 3.0 | 20.0 | 0.00 | 4.65 | 0.00 | 80 | 1014.6 |
| 20260509111123 | 74 | 225 | 3.0 | 12.0 | 0.00 | 4.70 | 0.00 | 80 | 1014.6 |
| 20260509111042 | 74 | 43 | 3.0 | 19.0 | 0.00 | 4.70 | 0.00 | 80 | 1014.7 |
| 20260509110613 | 74 | 37 | 8.0 | 19.0 | 0.00 | 4.74 | 0.00 | 80 | 1014.7 |
| 20260509110542 | 74 | 57 | 2.0 | 18.0 | 0.00 | 4.74 | 0.00 | 80 | 1014.7 |
| 20260509110042 | 74 | 260 | 4.0 | 9.0 | 0.00 | 4.78 | 0.00 | 80 | 1014.5 |
| 20260509105553 | 74 | 249 | 3.0 | 14.0 | 0.00 | 4.81 | 0.00 | 80 | 1014.6 |
| 20260509105542 | 74 | 300 | 3.0 | 14.0 | 0.00 | 4.81 | 0.00 | 80 | 1014.5 |
| 20260509105044 | 74 | 52 | 9.0 | 24.0 | 0.00 | 4.88 | 0.00 | 80 | 1014.7 |
| 20260509105042 | 74 | 48 | 8.0 | 24.0 | 0.00 | 4.88 | 0.00 | 80 | 1014.7 |
| 20260509104542 | 74 | 64 | 4.0 | 15.0 | 0.00 | 4.92 | 0.00 | 80 | 1014.6 |
| 20260509104533 | 74 | 28 | 4.0 | 15.0 | 0.00 | 4.92 | 0.00 | 80 | 1014.6 |
| 20260509104041 | 74 | 260 | 1.0 | 8.0 | 0.00 | 4.98 | 0.00 | 80 | 1014.7 |
| 20260509104023 | 74 | 302 | 1.0 | 8.0 | 0.00 | 4.98 | 0.00 | 80 | 1014.7 |
| 20260509103513 | 74 | 331 | 0.0 | 14.0 | 0.00 | 5.00 | 0.00 | 80 | 1014.7 |
| 20260509103042 | 74 | 30 | 2.0 | 14.0 | 0.00 | 5.03 | 0.00 | 80 | 1014.6 |
| 20260509103003 | 74 | 174 | 1.0 | 12.0 | 0.00 | 5.04 | 0.00 | 80 | 1014.6 |
| 20260509102542 | 74 | 125 | 6.0 | 12.0 | 0.00 | 5.10 | 0.00 | 80 | 1014.5 |
| 20260509102453 | 74 | 31 | 4.0 | 12.0 | 0.00 | 5.10 | 0.00 | 80 | 1014.5 |
| 20260509102041 | 74 | 209 | 7.0 | 12.0 | 0.00 | 5.11 | 0.00 | 80 | 1014.4 |
| 20260509101943 | 74 | 269 | 4.0 | 12.0 | 0.00 | 5.11 | 0.00 | 80 | 1014.4 |
| 20260509101542 | 74 | 359 | 6.0 | 13.0 | 0.00 | 5.16 | 0.00 | 80 | 1014.4 |
| 20260509101433 | 74 | 12 | 6.0 | 13.0 | 0.00 | 5.17 | 0.00 | 80 | 1014.4 |
| 20260509101041 | 74 | 345 | 4.0 | 14.0 | 0.00 | 5.23 | 0.00 | 80 | 1014.3 |
| 20260509100923 | 74 | 323 | 1.0 | 15.0 | 0.00 | 5.23 | 0.00 | 80 | 1014.3 |
| 20260509100542 | 74 | 44 | 8.0 | 15.0 | 0.00 | 5.25 | 0.00 | 80 | 1014.5 |
| 20260509100413 | 74 | 11 | 3.0 | 12.0 | 0.00 | 5.25 | 0.00 | 80 | 1014.4 |
| 20260509100041 | 74 | 254 | 3.0 | 16.0 | 0.00 | 5.27 | 0.00 | 80 | 1014.4 |
| 20260509095903 | 74 | 29 | 9.0 | 16.0 | 0.00 | 5.27 | 0.00 | 80 | 1014.5 |
| 20260509095542 | 74 | 347 | 1.0 | 10.0 | 0.00 | 5.33 | 0.00 | 80 | 1014.5 |
| 20260509095352 | 74 | 327 | 2.0 | 10.0 | 0.00 | 5.35 | 0.00 | 80 | 1014.5 |
| 20260509095041 | 74 | 317 | 3.0 | 9.0 | 0.00 | 5.37 | 0.00 | 80 | 1014.4 |
| 20260509094843 | 74 | 256 | 4.0 | 9.0 | 0.00 | 5.40 | 0.00 | 80 | 1014.5 |
| 20260509094542 | 74 | 248 | 1.0 | 9.0 | 0.00 | 5.43 | 0.00 | 80 | 1014.5 |
| 20260509094333 | 74 | 225 | 2.0 | 12.0 | 0.00 | 5.48 | 0.00 | 80 | 1014.4 |
| 20260509094041 | 74 | 358 | 5.0 | 12.0 | 0.00 | 5.51 | 0.00 | 80 | 1014.4 |
| 20260509093541 | 74 | 38 | 4.0 | 10.0 | 0.00 | 5.58 | 0.00 | 80 | 1014.4 |
| 20260509093313 | 74 | 258 | 3.0 | 10.0 | 0.00 | 5.63 | 0.00 | 80 | 1014.4 |
| 20260509093041 | 74 | 310 | 1.0 | 9.0 | 0.00 | 5.66 | 0.00 | 80 | 1014.3 |
| 20260509092803 | 74 | 180 | 3.0 | 11.0 | 0.00 | 5.75 | 0.00 | 80 | 1014.4 |
| 20260509092541 | 74 | 217 | 5.0 | 11.0 | 0.00 | 5.78 | 0.00 | 80 | 1014.3 |
| 20260509092253 | 74 | 356 | 2.0 | 10.0 | 0.00 | 5.83 | 0.00 | 80 | 1014.3 |
| 20260509092042 | 74 | 234 | 4.0 | 10.0 | 0.00 | 5.89 | 0.00 | 80 | 1014.2 |
| 20260509091742 | 74 | 284 | 2.0 | 9.0 | 0.00 | 5.90 | 0.00 | 80 | 1014.2 |
| 20260509091541 | 74 | 268 | 3.0 | 9.0 | 0.00 | 5.97 | 0.00 | 79 | 1014.1 |
| 20260509091233 | 74 | 315 | 2.0 | 6.0 | 0.00 | 6.02 | 0.00 | 79 | 1014.2 |
| 20260509091041 | 74 | 253 | 1.0 | 9.0 | 0.00 | 6.02 | 0.00 | 79 | 1014.1 |
| 20260509090722 | 74 | 104 | 4.0 | 9.0 | 0.00 | 6.10 | 0.00 | 79 | 1014.2 |
| 20260509090541 | 74 | 233 | 2.0 | 8.0 | 0.00 | 6.12 | 0.00 | 79 | 1014.2 |
| 20260509090041 | 74 | 307 | 1.0 | 14.0 | 0.00 | 6.24 | 0.00 | 79 | 1014.1 |
| 20260509085703 | 74 | 7 | 4.0 | 11.0 | 0.00 | 6.31 | 0.00 | 79 | 1014.1 |
| 20260509085541 | 74 | 267 | 4.0 | 11.0 | 0.00 | 6.33 | 0.00 | 79 | 1014.1 |
| 20260509085152 | 74 | 360 | 6.0 | 10.0 | 0.00 | 6.36 | 0.00 | 79 | 1014.1 |
| 20260509085041 | 74 | 1 | 2.0 | 10.0 | 0.00 | 6.37 | 0.00 | 79 | 1014.1 |
| 20260509084643 | 74 | 360 | 4.0 | 9.0 | 0.00 | 6.41 | 0.00 | 79 | 1014.1 |
| 20260509084541 | 74 | 357 | 2.0 | 9.0 | 0.00 | 6.42 | 0.00 | 79 | 1014.1 |
| 20260509084132 | 74 | 360 | 5.0 | 18.0 | 0.00 | 6.51 | 0.00 | 79 | 1014.1 |
| 20260509084041 | 74 | 66 | 4.0 | 18.0 | 0.00 | 6.51 | 0.00 | 79 | 1014.1 |
| 20260509083623 | 74 | 256 | 7.0 | 14.0 | 0.00 | 6.60 | 0.00 | 79 | 1014.1 |
| 20260509083541 | 74 | 205 | 8.0 | 14.0 | 0.00 | 6.60 | 0.00 | 79 | 1014.0 |
| 20260509083112 | 74 | 298 | 2.0 | 15.0 | 0.00 | 6.64 | 0.00 | 79 | 1014.1 |
| 20260509083041 | 74 | 47 | 2.0 | 16.0 | 0.00 | 6.64 | 0.00 | 79 | 1014.1 |
| 20260509082602 | 74 | 151 | 6.0 | 17.0 | 0.00 | 6.80 | 0.00 | 79 | 1014.1 |
| 20260509082541 | 74 | 301 | 7.0 | 17.0 | 0.00 | 6.80 | 0.00 | 79 | 1014.0 |
| 20260509082052 | 74 | 35 | 3.0 | 16.0 | 0.00 | 6.89 | 0.00 | 79 | 1014.2 |
| 20260509082040 | 74 | 74 | 3.0 | 16.0 | 0.00 | 6.89 | 0.00 | 79 | 1014.2 |
| 20260509081543 | 74 | 301 | 4.0 | 16.0 | 0.00 | 6.96 | 0.00 | 79 | 1014.1 |
| 20260509081541 | 74 | 336 | 4.0 | 16.0 | 0.00 | 6.96 | 0.00 | 79 | 1014.1 |
| 20260509081040 | 74 | 339 | 8.0 | 21.0 | 0.00 | 7.05 | 0.00 | 79 | 1014.2 |
| 20260509081032 | 74 | 5 | 8.0 | 21.0 | 0.00 | 7.06 | 0.00 | 79 | 1014.2 |
| 20260509080541 | 74 | 198 | 2.0 | 11.0 | 0.00 | 7.13 | 0.00 | 79 | 1014.1 |
| 20260509080522 | 74 | 269 | 3.0 | 11.0 | 0.00 | 7.15 | 0.00 | 79 | 1014.1 |
| 20260509080040 | 74 | 287 | 1.0 | 20.0 | 0.00 | 7.28 | 0.00 | 79 | 1014.2 |
| 20260509080012 | 74 | 288 | 1.0 | 20.0 | 0.00 | 7.29 | 0.00 | 79 | 1014.1 |
| 20260509075540 | 74 | 278 | 4.0 | 13.0 | 0.00 | 7.35 | 0.00 | 79 | 1014.1 |
| 20260509075502 | 74 | 328 | 4.0 | 13.0 | 0.00 | 7.38 | 0.00 | 79 | 1014.1 |
| 20260509075040 | 74 | 281 | 3.0 | 15.0 | 0.00 | 7.44 | 0.00 | 79 | 1014.1 |
| 20260509074951 | 74 | 259 | 3.0 | 15.0 | 0.00 | 7.46 | 0.00 | 79 | 1014.1 |
| 20260509074541 | 74 | 252 | 4.0 | 10.0 | 0.00 | 7.52 | 0.00 | 80 | 1014.2 |
| 20260509074442 | 74 | 292 | 6.0 | 10.0 | 0.00 | 7.52 | 0.00 | 80 | 1014.2 |
| 20260509074040 | 74 | 286 | 1.0 | 8.0 | 0.00 | 7.57 | 0.00 | 80 | 1014.2 |
| 20260509073932 | 74 | 283 | 0.0 | 8.0 | 0.00 | 7.58 | 0.00 | 79 | 1014.3 |
| 20260509073540 | 74 | 250 | 5.0 | 11.0 | 0.00 | 7.67 | 0.00 | 80 | 1014.3 |
| 20260509073422 | 74 | 251 | 5.0 | 11.0 | 0.00 | 7.68 | 0.00 | 80 | 1014.3 |
| 20260509073040 | 74 | 360 | 5.0 | 10.0 | 0.00 | 7.74 | 0.00 | 80 | 1014.3 |
| 20260509072541 | 74 | 329 | 4.0 | 13.0 | 0.00 | 7.80 | 0.00 | 79 | 1014.3 |
| 20260509072040 | 74 | 11 | 3.0 | 10.0 | 0.00 | 7.87 | 0.00 | 80 | 1014.4 |
| 20260509071851 | 74 | 318 | 1.0 | 10.0 | 0.00 | 7.90 | 0.00 | 80 | 1014.4 |
| 20260509071541 | 74 | 336 | 5.0 | 11.0 | 0.00 | 7.98 | 0.00 | 80 | 1014.4 |
| 20260509071342 | 74 | 34 | 5.0 | 11.0 | 0.00 | 8.00 | 0.00 | 80 | 1014.5 |
| 20260509071040 | 74 | 196 | 3.0 | 14.0 | 0.00 | 8.05 | 0.00 | 80 | 1014.4 |
| 20260509070540 | 75 | 324 | 1.0 | 8.0 | 0.00 | 8.07 | 0.00 | 80 | 1014.4 |
| 20260509070040 | 74 | 290 | 5.0 | 12.0 | 0.00 | 8.10 | 0.00 | 80 | 1014.4 |
| 20260509065541 | 75 | 258 | 2.0 | 12.0 | 0.00 | 8.17 | 0.00 | 80 | 1014.5 |
| 20260509065040 | 74 | 222 | 7.0 | 11.0 | 0.00 | 8.22 | 0.00 | 80 | 1014.4 |
| 20260509064539 | 74 | 19 | 5.0 | 13.0 | 0.00 | 8.26 | 0.00 | 80 | 1014.5 |
| 20260509064040 | 74 | 252 | 5.0 | 11.0 | 0.00 | 8.27 | 0.00 | 81 | 1014.5 |
| 20260509063040 | 74 | 253 | 4.0 | 15.0 | 0.00 | 8.38 | 0.00 | 82 | 1014.7 |
| 20260509062539 | 74 | 63 | 5.0 | 11.0 | 0.00 | 8.43 | 0.00 | 82 | 1014.7 |
| 20260509062040 | 73 | 24 | 2.0 | 8.0 | 0.00 | 8.50 | 0.00 | 82 | 1014.8 |
| 20260509061651 | 73 | 246 | 2.0 | 7.0 | 0.00 | 8.52 | 0.00 | 82 | 1014.8 |
| 20260509061539 | 73 | 331 | 3.0 | 12.0 | 0.00 | 8.53 | 0.00 | 83 | 1014.9 |
| 20260509061040 | 73 | 343 | 6.0 | 13.0 | 0.00 | 8.58 | 0.00 | 83 | 1015.1 |
| 20260509060631 | 73 | 352 | 7.0 | 20.0 | 0.00 | 8.63 | 0.00 | 83 | 1015.1 |
| 20260509060539 | 73 | 64 | 8.0 | 20.0 | 0.00 | 8.64 | 0.00 | 83 | 1015.2 |
| 20260509060121 | 73 | 219 | 4.0 | 9.0 | 0.00 | 8.72 | 0.00 | 83 | 1015.0 |
| 20260509060039 | 73 | 210 | 3.0 | 9.0 | 0.00 | 8.72 | 0.00 | 83 | 1015.1 |
| 20260509055611 | 73 | 258 | 3.0 | 10.0 | 0.00 | 8.75 | 0.00 | 83 | 1015.1 |
| 20260509055540 | 73 | 44 | 4.0 | 12.0 | 0.00 | 8.77 | 0.00 | 83 | 1015.1 |
| 20260509055039 | 73 | 285 | 5.0 | 9.0 | 0.00 | 8.79 | 0.00 | 83 | 1015.1 |
| 20260509054551 | 73 | 294 | 5.0 | 19.0 | 0.00 | 8.84 | 0.00 | 82 | 1015.1 |
| 20260509054540 | 73 | 334 | 5.0 | 19.0 | 0.00 | 8.84 | 0.00 | 82 | 1015.2 |
| 20260509054039 | 74 | 60 | 5.0 | 15.0 | 0.00 | 8.89 | 0.00 | 83 | 1015.2 |
| 20260509053540 | 74 | 113 | 0.0 | 10.0 | 0.00 | 8.96 | 0.00 | 83 | 1015.3 |
| 20260509053531 | 74 | 132 | 0.0 | 10.0 | 0.00 | 8.96 | 0.00 | 83 | 1015.3 |
| 20260509053039 | 74 | 269 | 1.0 | 12.0 | 0.00 | 9.04 | 0.00 | 82 | 1015.4 |
| 20260509053021 | 74 | 275 | 1.0 | 12.0 | 0.00 | 9.04 | 0.00 | 82 | 1015.4 |
| 20260509052540 | 73 | 210 | 3.0 | 11.0 | 0.00 | 9.11 | 0.00 | 83 | 1015.4 |
| 20260509052511 | 73 | 274 | 4.0 | 11.0 | 0.00 | 9.11 | 0.00 | 82 | 1015.5 |
| 20260509052039 | 74 | 275 | 3.0 | 6.0 | 0.00 | 9.12 | 0.00 | 83 | 1015.5 |
| 20260509052000 | 74 | 259 | 1.0 | 4.0 | 0.00 | 9.12 | 0.00 | 83 | 1015.5 |
| 20260509051540 | 74 | 304 | 3.0 | 9.0 | 0.00 | 9.14 | 0.00 | 83 | 1015.5 |
| 20260509051451 | 74 | 295 | 6.0 | 9.0 | 0.00 | 9.15 | 0.00 | 83 | 1015.4 |
| 20260509051039 | 74 | 241 | 2.0 | 7.0 | 0.00 | 9.16 | 0.00 | 84 | 1015.5 |
| 20260509050539 | 74 | 231 | 3.0 | 7.0 | 0.00 | 9.21 | 0.00 | 83 | 1015.5 |
| 20260509050431 | 73 | 20 | 2.0 | 11.0 | 0.00 | 9.21 | 0.00 | 84 | 1015.6 |
| 20260509050039 | 73 | 11 | 4.0 | 11.0 | 0.00 | 9.23 | 0.00 | 83 | 1015.7 |
| 20260509045920 | 73 | 318 | 2.0 | 12.0 | 0.00 | 9.24 | 0.00 | 84 | 1015.7 |
| 20260509045539 | 73 | 315 | 4.0 | 21.0 | 0.00 | 9.29 | 0.00 | 83 | 1015.8 |
| 20260509045411 | 73 | 68 | 11.0 | 21.0 | 0.00 | 9.30 | 0.00 | 83 | 1015.8 |
| 20260509045039 | 74 | 276 | 3.0 | 7.0 | 0.00 | 9.35 | 0.00 | 84 | 1015.8 |
| 20260509044901 | 74 | 335 | 3.0 | 8.0 | 0.00 | 9.36 | 0.00 | 84 | 1015.7 |
| 20260509044539 | 74 | 272 | 4.0 | 9.0 | 0.00 | 9.41 | 0.00 | 84 | 1015.8 |
| 20260509044350 | 73 | 298 | 2.0 | 9.0 | 0.00 | 9.42 | 0.00 | 84 | 1015.9 |
| 20260509044039 | 73 | 284 | 3.0 | 21.0 | 0.00 | 9.43 | 0.00 | 84 | 1016.0 |
| 20260509043841 | 73 | 77 | 3.0 | 21.0 | 0.00 | 9.47 | 0.00 | 84 | 1016.0 |
| 20260509043539 | 73 | 236 | 7.0 | 15.0 | 0.00 | 9.51 | 0.00 | 84 | 1016.0 |
| 20260509043330 | 73 | 305 | 1.0 | 8.0 | 0.00 | 9.56 | 0.00 | 84 | 1016.1 |
| 20260509043039 | 73 | 283 | 4.0 | 8.0 | 0.00 | 9.59 | 0.00 | 84 | 1016.2 |
| 20260509042821 | 73 | 82 | 1.0 | 7.0 | 0.00 | 9.59 | 0.00 | 84 | 1016.3 |
| 20260509042539 | 73 | 351 | 2.0 | 9.0 | 0.00 | 9.60 | 0.00 | 84 | 1016.3 |
| 20260509042310 | 73 | 77 | 5.0 | 13.0 | 0.00 | 9.62 | 0.00 | 84 | 1016.3 |
| 20260509042039 | 73 | 348 | 2.0 | 14.0 | 0.00 | 9.64 | 0.00 | 84 | 1016.3 |
| 20260509041801 | 73 | 277 | 3.0 | 14.0 | 0.00 | 9.64 | 0.00 | 84 | 1016.3 |
| 20260509041539 | 73 | 23 | 3.0 | 12.0 | 0.00 | 9.68 | 0.00 | 84 | 1016.5 |
| 20260509041250 | 73 | 360 | 6.0 | 22.0 | 0.00 | 9.73 | 0.00 | 84 | 1016.4 |
| 20260509041039 | 73 | 0 | 8.0 | 22.0 | 0.00 | 9.73 | 0.00 | 84 | 1016.4 |
| 20260509040538 | 73 | 30 | 4.0 | 15.0 | 0.00 | 9.79 | 0.00 | 84 | 1016.4 |
| 20260509040230 | 73 | 241 | 5.0 | 17.0 | 0.00 | 9.83 | 0.00 | 85 | 1016.3 |
| 20260509040039 | 73 | 230 | 3.0 | 17.0 | 0.00 | 9.89 | 0.00 | 85 | 1016.3 |
| 20260509035720 | 73 | 36 | 2.0 | 12.0 | 0.00 | 9.95 | 0.00 | 85 | 1016.4 |
| 20260509035537 | 73 | 222 | 7.0 | 12.0 | 0.00 | 9.98 | 0.00 | 85 | 1016.4 |
| 20260509035210 | 73 | 330 | 3.0 | 17.0 | 0.00 | 0.01 | 0.00 | 85 | 1016.4 |
| 20260509035039 | 73 | 11 | 4.0 | 17.0 | 0.00 | 0.07 | 0.00 | 85 | 1016.4 |
| 20260509034700 | 73 | 15 | 4.0 | 10.0 | 0.00 | 0.12 | 0.00 | 85 | 1016.5 |
| 20260509034539 | 73 | 276 | 7.0 | 10.0 | 0.00 | 0.14 | 0.00 | 85 | 1016.5 |
| 20260509034150 | 73 | 230 | 7.0 | 13.0 | 0.00 | 0.22 | 0.00 | 85 | 1016.6 |
| 20260509034039 | 73 | 309 | 4.0 | 13.0 | 0.00 | 0.26 | 0.00 | 85 | 1016.6 |
| 20260509033640 | 73 | 247 | 4.0 | 14.0 | 0.00 | 0.29 | 0.00 | 85 | 1016.7 |
| 20260509033539 | 73 | 239 | 8.0 | 14.0 | 0.00 | 0.29 | 0.00 | 85 | 1016.6 |
| 20260509033130 | 73 | 240 | 3.0 | 10.0 | 0.00 | 0.35 | 0.00 | 85 | 1016.7 |
| 20260509033039 | 73 | 240 | 5.0 | 10.0 | 0.00 | 0.38 | 0.00 | 85 | 1016.7 |
| 20260509032620 | 73 | 183 | 3.0 | 8.0 | 0.00 | 0.45 | 0.00 | 85 | 1016.6 |
| 20260509032539 | 73 | 280 | 2.0 | 8.0 | 0.00 | 0.45 | 0.00 | 85 | 1016.6 |
| 20260509032109 | 73 | 263 | 3.0 | 13.0 | 0.00 | 0.55 | 0.00 | 85 | 1016.6 |
| 20260509032038 | 73 | 278 | 2.0 | 13.0 | 0.00 | 0.58 | 0.00 | 85 | 1016.6 |
| 20260509031600 | 73 | 48 | 2.0 | 17.0 | 0.00 | 0.66 | 0.00 | 85 | 1016.6 |
| 20260509031539 | 73 | 62 | 2.0 | 17.0 | 0.00 | 0.66 | 0.00 | 85 | 1016.6 |
| 20260509031049 | 73 | 67 | 4.0 | 10.0 | 0.00 | 0.78 | 0.00 | 85 | 1016.7 |
| 20260509031038 | 73 | 66 | 4.0 | 10.0 | 0.00 | 0.78 | 0.00 | 85 | 1016.7 |
| 20260509030541 | 73 | 44 | 5.0 | 20.0 | 0.00 | 0.85 | 0.00 | 85 | 1016.6 |
| 20260509030539 | 73 | 41 | 5.0 | 20.0 | 0.00 | 0.85 | 0.00 | 85 | 1016.6 |
| 20260509030038 | 73 | 358 | 4.0 | 12.0 | 0.00 | 0.88 | 0.00 | 85 | 1016.5 |
| 20260509030029 | 73 | 298 | 5.0 | 12.0 | 0.00 | 0.88 | 0.00 | 85 | 1016.4 |
| 20260509025538 | 73 | 338 | 4.0 | 16.0 | 0.00 | 0.99 | 0.00 | 85 | 1016.4 |
| 20260509025519 | 73 | 286 | 4.0 | 16.0 | 0.00 | 0.99 | 0.00 | 85 | 1016.4 |
| 20260509025038 | 73 | 209 | 2.0 | 7.0 | 0.00 | 1.09 | 0.00 | 85 | 1016.3 |
| 20260509025010 | 73 | 263 | 2.0 | 7.0 | 0.00 | 1.09 | 0.00 | 85 | 1016.3 |
| 20260509024538 | 73 | 224 | 1.0 | 12.0 | 0.00 | 1.18 | 0.00 | 85 | 1016.4 |
| 20260509024459 | 73 | 76 | 1.0 | 13.0 | 0.00 | 1.19 | 0.00 | 85 | 1016.5 |
| 20260509024038 | 73 | 8 | 8.0 | 18.0 | 0.00 | 1.26 | 0.00 | 85 | 1016.5 |
| 20260509023950 | 73 | 30 | 3.0 | 18.0 | 0.00 | 1.30 | 0.00 | 85 | 1016.5 |
| 20260509023538 | 73 | 29 | 6.0 | 16.0 | 0.00 | 1.33 | 0.00 | 85 | 1016.6 |
| 20260509023439 | 73 | 111 | 6.0 | 16.0 | 0.00 | 1.35 | 0.00 | 85 | 1016.6 |
| 20260509023038 | 73 | 280 | 6.0 | 10.0 | 0.00 | 1.44 | 0.00 | 85 | 1016.5 |
| 20260509022930 | 73 | 356 | 5.0 | 8.0 | 0.00 | 1.44 | 0.00 | 85 | 1016.6 |
| 20260509022538 | 73 | 266 | 5.0 | 15.0 | 0.00 | 1.50 | 0.00 | 85 | 1016.7 |
| 20260509022419 | 73 | 273 | 6.0 | 15.0 | 0.00 | 1.51 | 0.00 | 85 | 1016.7 |
| 20260509022038 | 73 | 255 | 3.0 | 7.0 | 0.00 | 1.56 | 0.00 | 85 | 1016.8 |
| 20260509021538 | 73 | 255 | 3.0 | 11.0 | 0.00 | 1.66 | 0.00 | 85 | 1016.8 |
| 20260509021359 | 73 | 211 | 3.0 | 10.0 | 0.00 | 1.68 | 0.00 | 85 | 1016.8 |
| 20260509021038 | 73 | 62 | 3.0 | 16.0 | 0.00 | 1.81 | 0.00 | 85 | 1016.8 |
| 20260509020849 | 73 | 35 | 2.0 | 16.0 | 0.00 | 1.85 | 0.00 | 85 | 1016.8 |
| 20260509020537 | 73 | 349 | 5.0 | 11.0 | 0.00 | 1.90 | 0.00 | 85 | 1016.7 |
| 20260509020339 | 73 | 116 | 5.0 | 20.0 | 0.00 | 1.92 | 0.00 | 85 | 1016.7 |
| 20260509020038 | 73 | 17 | 8.0 | 20.0 | 0.00 | 1.95 | 0.00 | 85 | 1016.6 |
| 20260509015829 | 73 | 81 | 9.0 | 18.0 | 0.00 | 1.99 | 0.00 | 85 | 1016.7 |
| 20260509015537 | 73 | 196 | 2.0 | 10.0 | 0.00 | 2.05 | 0.00 | 85 | 1016.8 |
| 20260509015319 | 73 | 128 | 3.0 | 14.0 | 0.00 | 2.09 | 0.00 | 85 | 1016.7 |
| 20260509015038 | 73 | 99 | 4.0 | 14.0 | 0.00 | 2.12 | 0.00 | 85 | 1016.8 |
| 20260509014809 | 73 | 197 | 7.0 | 14.0 | 0.00 | 2.22 | 0.00 | 85 | 1016.7 |
| 20260509014536 | 73 | 16 | 3.0 | 15.0 | 0.00 | 2.28 | 0.00 | 85 | 1016.8 |
| 20260509014259 | 73 | 240 | 5.0 | 15.0 | 0.00 | 2.33 | 0.00 | 85 | 1016.8 |
| 20260509013749 | 73 | 257 | 5.0 | 16.0 | 0.00 | 2.37 | 0.00 | 85 | 1016.6 |
| 20260509013537 | 73 | 13 | 5.0 | 16.0 | 0.00 | 2.44 | 0.00 | 85 | 1016.7 |
| 20260509013239 | 73 | 323 | 4.0 | 11.0 | 0.00 | 2.55 | 0.00 | 85 | 1016.7 |
| 20260509013038 | 73 | 64 | 4.0 | 11.0 | 0.00 | 2.60 | 0.00 | 85 | 1016.8 |
| 20260509012729 | 73 | 307 | 1.0 | 14.0 | 0.00 | 2.66 | 0.00 | 85 | 1016.7 |
| 20260509012537 | 73 | 286 | 4.0 | 15.0 | 0.00 | 2.67 | 0.00 | 85 | 1016.7 |
| 20260509012219 | 73 | 228 | 8.0 | 15.0 | 0.00 | 2.72 | 0.00 | 86 | 1016.6 |
| 20260509012037 | 73 | 244 | 3.0 | 7.0 | 0.00 | 2.74 | 0.00 | 86 | 1016.6 |
| 20260509011709 | 73 | 294 | 2.0 | 12.0 | 0.00 | 2.77 | 0.00 | 86 | 1016.6 |
| 20260509011537 | 73 | 202 | 7.0 | 12.0 | 0.00 | 2.77 | 0.00 | 86 | 1016.5 |
| 20260509011159 | 73 | 96 | 3.0 | 10.0 | 0.00 | 2.82 | 0.00 | 86 | 1016.5 |
| 20260509011037 | 73 | 51 | 4.0 | 13.0 | 0.00 | 2.83 | 0.00 | 86 | 1016.6 |
| 20260509010649 | 73 | 198 | 8.0 | 14.0 | 0.00 | 2.88 | 0.00 | 86 | 1016.5 |
| 20260509010537 | 73 | 200 | 2.0 | 14.0 | 0.00 | 2.90 | 0.00 | 86 | 1016.5 |
| 20260509010138 | 73 | 235 | 0.0 | 5.0 | 0.00 | 2.98 | 0.00 | 86 | 1016.5 |
| 20260509010037 | 73 | 360 | 2.0 | 7.0 | 0.00 | 2.98 | 0.00 | 86 | 1016.5 |
| 20260509005629 | 73 | 247 | 5.0 | 10.0 | 0.00 | 3.05 | 0.00 | 86 | 1016.3 |
| 20260509005537 | 73 | 221 | 7.0 | 10.0 | 0.00 | 3.06 | 0.00 | 86 | 1016.3 |
| 20260509005119 | 73 | 319 | 2.0 | 8.0 | 0.00 | 3.11 | 0.00 | 86 | 1016.2 |
| 20260509005037 | 73 | 275 | 2.0 | 8.0 | 0.00 | 3.11 | 0.00 | 86 | 1016.2 |
| 20260509004609 | 73 | 19 | 5.0 | 20.0 | 0.00 | 3.16 | 0.00 | 86 | 1016.1 |
| 20260509004537 | 73 | 103 | 8.0 | 20.0 | 0.00 | 3.16 | 0.00 | 86 | 1016.1 |
| 20260509004058 | 73 | 242 | 0.0 | 4.0 | 0.00 | 3.21 | 0.00 | 87 | 1016.1 |
| 20260509004037 | 73 | 213 | 0.0 | 7.0 | 0.00 | 3.21 | 0.00 | 87 | 1016.1 |
| 20260509003549 | 73 | 316 | 5.0 | 15.0 | 0.00 | 3.27 | 0.00 | 87 | 1016.1 |
| 20260509003537 | 73 | 124 | 5.0 | 15.0 | 0.00 | 3.27 | 0.00 | 87 | 1016.1 |
| 20260509003039 | 72 | 310 | 0.0 | 18.0 | 0.00 | 3.28 | 0.00 | 87 | 1016.1 |
| 20260509003037 | 72 | 306 | 0.0 | 18.0 | 0.00 | 3.28 | 0.00 | 87 | 1016.1 |
| 20260509002537 | 72 | 307 | 4.0 | 18.0 | 0.00 | 3.31 | 0.00 | 87 | 1016.0 |
| 20260509002528 | 72 | 231 | 5.0 | 18.0 | 0.00 | 3.31 | 0.00 | 87 | 1015.9 |
| 20260509002037 | 72 | 154 | 3.0 | 21.0 | 0.00 | 3.32 | 0.00 | 87 | 1015.8 |
| 20260509002018 | 72 | 23 | 6.0 | 21.0 | 0.00 | 3.32 | 0.00 | 87 | 1015.8 |
| 20260509001537 | 73 | 3 | 4.0 | 17.0 | 0.00 | 3.33 | 0.00 | 87 | 1015.8 |
| 20260509001508 | 72 | 298 | 2.0 | 17.0 | 0.00 | 3.33 | 0.00 | 87 | 1015.8 |
| 20260509001037 | 73 | 230 | 3.0 | 11.0 | 0.00 | 3.33 | 0.00 | 87 | 1015.7 |
| 20260509000958 | 73 | 280 | 2.0 | 11.0 | 0.00 | 3.34 | 0.00 | 87 | 1015.8 |
| 20260509000537 | 73 | 259 | 3.0 | 15.0 | 0.00 | 3.35 | 0.00 | 87 | 1015.7 |
| 20260509000448 | 73 | 346 | 1.0 | 15.0 | 0.00 | 3.35 | 0.00 | 87 | 1015.7 |
| 20260509000036 | 73 | 63 | 4.0 | 16.0 | 0.00 | 3.40 | 0.00 | 87 | 1015.8 |
| 20260508235938 | 73 | 262 | 6.0 | 16.0 | 0.00 | 3.40 | 0.00 | 87 | 1015.7 |
| 20260508235537 | 73 | 314 | 5.0 | 10.0 | 0.00 | 3.41 | 0.00 | 87 | 1015.8 |
| 20260508235428 | 73 | 146 | 4.0 | 10.0 | 0.00 | 3.41 | 0.00 | 87 | 1015.8 |
| 20260508235037 | 73 | 98 | 2.0 | 14.0 | 0.00 | 3.42 | 0.00 | 87 | 1015.8 |
| 20260508234918 | 73 | 41 | 0.0 | 14.0 | 0.00 | 3.45 | 0.00 | 87 | 1015.8 |
| 20260508234537 | 73 | 76 | 4.0 | 13.0 | 0.00 | 3.46 | 0.00 | 87 | 1015.8 |
| 20260508234408 | 73 | 32 | 5.0 | 13.0 | 0.00 | 3.46 | 0.00 | 87 | 1015.8 |
| 20260508234037 | 73 | 283 | 5.0 | 13.0 | 0.00 | 3.48 | 0.00 | 87 | 1015.8 |
| 20260508233537 | 73 | 71 | 8.0 | 25.0 | 0.00 | 3.49 | 0.00 | 86 | 1015.8 |
| 20260508233348 | 73 | 44 | 4.0 | 8.0 | 0.00 | 3.49 | 0.00 | 86 | 1015.8 |
| 20260508233037 | 73 | 238 | 1.0 | 6.0 | 0.00 | 3.51 | 0.00 | 86 | 1015.7 |
| 20260508232838 | 73 | 35 | 0.0 | 9.0 | 0.00 | 3.51 | 0.00 | 86 | 1015.7 |
| 20260508232536 | 73 | 249 | 5.0 | 9.0 | 0.00 | 3.51 | 0.00 | 86 | 1015.7 |
| 20260508232328 | 73 | 282 | 2.0 | 8.0 | 0.00 | 3.51 | 0.00 | 86 | 1015.6 |
| 20260508232037 | 73 | 225 | 1.0 | 8.0 | 0.00 | 3.51 | 0.00 | 86 | 1015.6 |
| 20260508231818 | 73 | 227 | 3.0 | 7.0 | 0.00 | 3.51 | 0.00 | 86 | 1015.5 |
| 20260508231536 | 73 | 340 | 0.0 | 11.0 | 0.00 | 3.51 | 0.00 | 86 | 1015.4 |
| 20260508231308 | 73 | 181 | 1.0 | 11.0 | 0.00 | 3.51 | 0.00 | 86 | 1015.4 |
| 20260508231037 | 73 | 108 | 4.0 | 8.0 | 0.00 | 3.53 | 0.00 | 86 | 1015.4 |
| 20260508230757 | 73 | 277 | 1.0 | 6.0 | 0.00 | 3.54 | 0.00 | 86 | 1015.4 |
| 20260508230536 | 73 | 31 | 0.0 | 7.0 | 0.00 | 3.54 | 0.00 | 86 | 1015.3 |
| 20260508230248 | 73 | 171 | 1.0 | 11.0 | 0.00 | 3.54 | 0.00 | 86 | 1015.2 |
| 20260508230037 | 73 | 200 | 3.0 | 13.0 | 0.00 | 3.54 | 0.00 | 86 | 1015.2 |
| 20260508225737 | 73 | 324 | 7.0 | 13.0 | 0.00 | 3.55 | 0.00 | 86 | 1015.1 |
| 20260508225536 | 73 | 248 | 3.0 | 12.0 | 0.00 | 3.57 | 0.00 | 86 | 1015.1 |
| 20260508225228 | 73 | 256 | 6.0 | 12.0 | 0.00 | 3.59 | 0.00 | 86 | 1015.0 |
| 20260508225036 | 73 | 244 | 4.0 | 8.0 | 0.00 | 3.59 | 0.00 | 86 | 1015.0 |
| 20260508224717 | 73 | 212 | 3.0 | 6.0 | 0.00 | 3.59 | 0.00 | 86 | 1014.9 |
| 20260508224536 | 73 | 4 | 1.0 | 10.0 | 0.00 | 3.59 | 0.00 | 86 | 1015.0 |
| 20260508224036 | 73 | 147 | 1.0 | 18.0 | 0.00 | 3.59 | 0.00 | 86 | 1014.9 |
| 20260508223657 | 73 | 282 | 4.0 | 13.0 | 0.00 | 3.59 | 0.00 | 86 | 1014.8 |
| 20260508223536 | 73 | 265 | 3.0 | 24.0 | 0.00 | 3.59 | 0.00 | 86 | 1014.8 |
| 20260508223148 | 73 | 341 | 11.0 | 24.0 | 0.00 | 3.59 | 0.00 | 86 | 1014.8 |
| 20260508223036 | 73 | 203 | 5.0 | 14.0 | 0.00 | 3.59 | 0.00 | 86 | 1014.7 |
| 20260508222637 | 73 | 43 | 9.0 | 16.0 | 0.00 | 3.59 | 0.00 | 86 | 1014.7 |
| 20260508222536 | 73 | 233 | 6.0 | 16.0 | 0.00 | 3.59 | 0.00 | 86 | 1014.6 |
| 20260508222128 | 73 | 18 | 7.0 | 17.0 | 0.00 | 3.59 | 0.00 | 86 | 1014.7 |
| 20260508222036 | 73 | 57 | 5.0 | 17.0 | 0.00 | 3.59 | 0.00 | 86 | 1014.7 |
| 20260508221617 | 73 | 174 | 4.0 | 17.0 | 0.00 | 3.60 | 0.00 | 87 | 1014.6 |
| 20260508221536 | 73 | 295 | 5.0 | 17.0 | 0.00 | 3.60 | 0.00 | 87 | 1014.5 |
| 20260508221108 | 73 | 162 | 4.0 | 14.0 | 0.00 | 3.60 | 0.00 | 87 | 1014.4 |
| 20260508221036 | 73 | 254 | 2.0 | 14.0 | 0.00 | 3.60 | 0.00 | 87 | 1014.4 |
| 20260508220557 | 73 | 224 | 10.0 | 15.0 | 0.00 | 3.60 | 0.00 | 87 | 1014.3 |
| 20260508220536 | 73 | 237 | 10.0 | 15.0 | 0.00 | 3.60 | 0.00 | 87 | 1014.2 |
| 20260508220047 | 73 | 348 | 8.0 | 19.0 | 0.00 | 3.61 | 0.00 | 87 | 1014.2 |
| 20260508220036 | 73 | 330 | 7.0 | 19.0 | 0.00 | 3.61 | 0.00 | 87 | 1014.3 |
| 20260508215538 | 73 | 14 | 8.0 | 25.0 | 0.00 | 3.61 | 0.00 | 87 | 1014.1 |
| 20260508215535 | 73 | 10 | 8.0 | 25.0 | 0.00 | 3.61 | 0.00 | 87 | 1014.1 |
| 20260508215036 | 73 | 28 | 3.0 | 15.0 | 0.00 | 3.61 | 0.00 | 87 | 1014.2 |
| 20260508215027 | 73 | 233 | 4.0 | 15.0 | 0.00 | 3.61 | 0.00 | 87 | 1014.2 |
| 20260508214535 | 73 | 344 | 4.0 | 26.0 | 0.00 | 3.61 | 0.00 | 87 | 1014.0 |
| 20260508214517 | 73 | 355 | 6.0 | 26.0 | 0.00 | 3.61 | 0.00 | 87 | 1014.1 |
| 20260508214007 | 73 | 298 | 7.0 | 11.0 | 0.00 | 3.61 | 0.00 | 87 | 1014.1 |
| 20260508213457 | 73 | 228 | 3.0 | 7.0 | 0.00 | 3.61 | 0.00 | 87 | 1014.1 |
| 20260508213036 | 73 | 215 | 1.0 | 7.0 | 0.00 | 3.61 | 0.00 | 87 | 1014.0 |
| 20260508212947 | 73 | 43 | 2.0 | 11.0 | 0.00 | 3.61 | 0.00 | 87 | 1014.1 |